STARLINK-3916, 52492

Orbit data source: Space-Track

STARLINK-3916, 52492 is a payload satellite owned by SpaceX/Seattle (US) in LEO that was launched on Fri, 06 May 2022 UTC via an FALCON 9 launch vehicle from the Air Force Eastern Test Range (AFETR). Payload-class satellites include a variety of spacecraft equipped with specific instruments for various scientific and technological missions. These include communications satellites like Starlink; space stations such as the ISS; scientific satellites like the Hubble; Earth observation satellites from companies like Planet Labs, Umbra, and HawkEye 360; GPS; miniature CubeSats for education and research; and military/defense satellites.

Loading next visibility...
Identifier
52492, 2022-049AT
Orbit
LEO
Country
Flag of USUS
Related business
Manufacturer
SpaceX/Seattle
Mission
Operational Commercial Communications
Bus & Motor
STARLINK, Unknown motor
Mass
297 kg wet, ~220 kg dry
Launch date (UTC)
2022-05-06 (4 years ago)
Launch vehicle
FALCON 9
Launch site
Air Force Eastern Test Range (AFETR)
Object type
Payload
Rocket body
Debris
Shape & HBR
Box + 1 Pan, 10.1 m
Radar Cross Section
13.562 m², Large (>1 m²)

Expand to show TLE details & history
Last TLE update: 13 hours ago

TLE from 13 hours ago
0 STARLINK-3916
1 52492U 22049AT  25346.97975885  .00000670  00000-0  60198-4 0  9998
2 52492  53.2186  78.3761 0001451  96.0174 264.0984 15.08835139199307
Epoch: 2025-12-12T23:30Z
TLE epoch observation values (Epoch: 2025-12-12T23:30:51.164Z)
Latitude
0.00001°
Longitude
3.74931°
Altitude
540.759 km
Speed
7.593 km/s
True Right ascension
05h 13m 30s
True Declination
0° 00' 00"
Sunlit
Object was in full shadow at epoch
Visualization orbit readout
Latitude
Unknown
Longitude
Unknown
Altitude
Unknown
Speed
Unknown
Apparent Right ascension
Unknown
Apparent Declination
Unknown
Sunlit
N/A
Visualization observer readout
Local Sidereal Time
11:02:37
Azimuth
Unknown
Elevation
Unknown
Doppler factor
Unknown
Orbital elements
Apogee altitude
541.007 km
Perigee altitude
538.999 km
Semi-major axis
6,918.14 km
Eccentricity
0.00015
Inclination
53.2186°
RAAN
78.3761°
Arg. of periapsis
96.0174°
True anomaly
264.08186°
Mean anomaly
264.0984°
Eccentric anomaly
264.09013°
Mean motion
3.77189 °/min
Orbital period
95.44 mins
BSTAR
0.000060198
Loading maneuver chart data...
Computing Atmospheric mass density...
Loading historical data...
Loading historical data...
Loading historical data...
Loading historical data...
Loading historical data...
Loading historical data...
Loading historical data...

Documentation

Showing up to 5 results
|